User: anonymous   Login
Location: Unspecified
(0.0000°N, 0.0000°E)
Time: 10:08:32
(UTC+01:00)
Language:

Orbus 21S - Orbit

View from above orbital plane
View from above orbital plane
View from above satellite
View from above satellite

Ground track
Ground track

The orbit data is extracted from the following two-line orbital elements,

1 20669U 90056C   18049.89817541  .00000437  00000-0  32693-3 0  9998
2 20669  24.4809 344.4391 7104789 200.5056 102.6647  2.48580895233546
Epoch (UTC): 18 February 2018 21:33:22
Eccentricity: 0.7104789
inclination: 24.4809°
perigee height: 286 km
apogee height: 32995 km
right ascension of ascending node: 344.4391°
argument of perigee: 200.5056°
revolutions per day: 2.48580895
mean anomaly at epoch: 102.6647°
orbit number at epoch: 23354

The dashed part of the orbit path shows where the satellite is in the earth's shadow,  

DLR